Year,Month,Day,Hour,Minute,Value (Times are PST for insolation in W/m^2)
2023,05,21,00,00,0.00
2023,05,21,00,01,0.00
2023,05,21,00,02,0.00
2023,05,21,00,03,0.00
2023,05,21,00,04,0.00
2023,05,21,00,05,0.00
2023,05,21,00,06,0.00
2023,05,21,00,07,0.00
2023,05,21,00,08,0.00
2023,05,21,00,09,0.00
2023,05,21,00,10,0.00
2023,05,21,00,11,0.00
2023,05,21,00,12,0.00
2023,05,21,00,13,0.00
2023,05,21,00,14,0.00
2023,05,21,00,15,0.00
2023,05,21,00,16,0.00
2023,05,21,00,17,0.00
2023,05,21,00,18,0.00
2023,05,21,00,19,0.00
2023,05,21,00,20,0.00
2023,05,21,00,21,0.00
2023,05,21,00,22,0.00
2023,05,21,00,23,0.00
2023,05,21,00,24,0.00
2023,05,21,00,25,0.00
2023,05,21,00,26,0.00
2023,05,21,00,27,0.00
2023,05,21,00,28,0.00
2023,05,21,00,29,0.00
2023,05,21,00,30,0.00
2023,05,21,00,31,0.00
2023,05,21,00,32,0.00
2023,05,21,00,33,0.00
2023,05,21,00,34,0.00
2023,05,21,00,35,0.00
2023,05,21,00,36,0.00
2023,05,21,00,37,0.00
2023,05,21,00,38,0.00
2023,05,21,00,39,0.00
2023,05,21,00,40,0.00
2023,05,21,00,41,0.00
2023,05,21,00,42,0.00
2023,05,21,00,43,0.00
2023,05,21,00,44,0.00
2023,05,21,00,45,0.00
2023,05,21,00,46,0.00
2023,05,21,00,47,0.00
2023,05,21,00,48,0.00
2023,05,21,00,49,0.00
2023,05,21,00,50,0.00
2023,05,21,00,51,0.00
2023,05,21,00,52,0.00
2023,05,21,00,53,0.00
2023,05,21,00,54,0.00
2023,05,21,00,55,0.00
2023,05,21,00,56,0.00
2023,05,21,00,57,0.00
2023,05,21,00,58,0.00
2023,05,21,00,59,0.00
2023,05,21,01,00,0.00
2023,05,21,01,01,0.00
2023,05,21,01,02,0.00
2023,05,21,01,03,0.00
2023,05,21,01,04,0.00
2023,05,21,01,05,0.00
2023,05,21,01,06,0.00
2023,05,21,01,07,0.00
2023,05,21,01,08,0.00
2023,05,21,01,09,0.00
2023,05,21,01,10,0.00
2023,05,21,01,11,0.00
2023,05,21,01,12,0.00
2023,05,21,01,13,0.00
2023,05,21,01,14,0.00
2023,05,21,01,15,0.00
2023,05,21,01,16,0.00
2023,05,21,01,17,0.00
2023,05,21,01,18,0.00
2023,05,21,01,19,0.00
2023,05,21,01,20,0.00
2023,05,21,01,21,0.00
2023,05,21,01,22,0.00
2023,05,21,01,23,0.00
2023,05,21,01,24,0.00
2023,05,21,01,25,0.00
2023,05,21,01,26,0.00
2023,05,21,01,27,0.00
2023,05,21,01,28,0.00
2023,05,21,01,29,0.00
2023,05,21,01,30,0.00
2023,05,21,01,31,0.00
2023,05,21,01,32,0.00
2023,05,21,01,33,0.00
2023,05,21,01,34,0.00
2023,05,21,01,35,0.00
2023,05,21,01,36,0.00
2023,05,21,01,37,0.00
2023,05,21,01,38,0.00
2023,05,21,01,39,0.00
2023,05,21,01,40,0.00
2023,05,21,01,41,0.00
2023,05,21,01,42,0.00
2023,05,21,01,43,0.00
2023,05,21,01,44,0.00
2023,05,21,01,45,0.00
2023,05,21,01,46,0.00
2023,05,21,01,47,0.00
2023,05,21,01,48,0.00
2023,05,21,01,49,0.00
2023,05,21,01,50,0.00
2023,05,21,01,51,0.00
2023,05,21,01,52,0.00
2023,05,21,01,53,0.00
2023,05,21,01,54,0.00
2023,05,21,01,55,0.00
2023,05,21,01,56,0.00
2023,05,21,01,57,0.00
2023,05,21,01,58,0.00
2023,05,21,01,59,0.00
2023,05,21,02,00,0.00
2023,05,21,02,01,0.00
2023,05,21,02,02,0.00
2023,05,21,02,03,0.00
2023,05,21,02,04,0.00
2023,05,21,02,05,0.00
2023,05,21,02,06,0.00
2023,05,21,02,07,0.00
2023,05,21,02,08,0.00
2023,05,21,02,09,0.00
2023,05,21,02,10,0.00
2023,05,21,02,11,0.00
2023,05,21,02,12,0.00
2023,05,21,02,13,0.00
2023,05,21,02,14,0.00
2023,05,21,02,15,0.00
2023,05,21,02,16,0.00
2023,05,21,02,17,0.00
2023,05,21,02,18,0.00
2023,05,21,02,19,0.00
2023,05,21,02,20,0.00
2023,05,21,02,21,0.00
2023,05,21,02,22,0.00
2023,05,21,02,23,0.00
2023,05,21,02,24,0.00
2023,05,21,02,25,0.00
2023,05,21,02,26,0.00
2023,05,21,02,27,0.00
2023,05,21,02,28,0.00
2023,05,21,02,29,0.00
2023,05,21,02,30,0.00
2023,05,21,02,31,0.00
2023,05,21,02,32,0.00
2023,05,21,02,33,0.00
2023,05,21,02,34,0.00
2023,05,21,02,35,0.00
2023,05,21,02,36,0.00
2023,05,21,02,37,0.00
2023,05,21,02,38,0.00
2023,05,21,02,39,0.00
2023,05,21,02,40,0.00
2023,05,21,02,41,0.00
2023,05,21,02,42,0.00
2023,05,21,02,43,0.00
2023,05,21,02,44,0.00
2023,05,21,02,45,0.00
2023,05,21,02,46,0.00
2023,05,21,02,47,0.00
2023,05,21,02,48,0.00
2023,05,21,02,49,0.00
2023,05,21,02,50,0.00
2023,05,21,02,51,0.00
2023,05,21,02,52,0.00
2023,05,21,02,53,0.00
2023,05,21,02,54,0.00
2023,05,21,02,55,0.00
2023,05,21,02,56,0.00
2023,05,21,02,57,0.00
2023,05,21,02,58,0.00
2023,05,21,02,59,0.00
2023,05,21,03,00,0.00
2023,05,21,03,01,0.00
2023,05,21,03,02,0.00
2023,05,21,03,03,0.00
2023,05,21,03,04,0.00
2023,05,21,03,05,0.00
2023,05,21,03,06,0.00
2023,05,21,03,07,0.00
2023,05,21,03,08,0.00
2023,05,21,03,09,0.00
2023,05,21,03,10,0.00
2023,05,21,03,11,0.00
2023,05,21,03,12,0.00
2023,05,21,03,13,0.00
2023,05,21,03,14,0.00
2023,05,21,03,15,0.00
2023,05,21,03,16,0.00
2023,05,21,03,17,0.00
2023,05,21,03,18,0.00
2023,05,21,03,19,0.00
2023,05,21,03,20,0.00
2023,05,21,03,21,0.00
2023,05,21,03,22,0.00
2023,05,21,03,23,0.00
2023,05,21,03,24,0.00
2023,05,21,03,25,0.00
2023,05,21,03,26,0.00
2023,05,21,03,27,0.00
2023,05,21,03,28,0.00
2023,05,21,03,29,0.00
2023,05,21,03,30,0.00
2023,05,21,03,31,0.00
2023,05,21,03,32,0.00
2023,05,21,03,33,0.00
2023,05,21,03,34,0.00
2023,05,21,03,35,0.00
2023,05,21,03,36,0.00
2023,05,21,03,37,0.00
2023,05,21,03,38,0.00
2023,05,21,03,39,0.00
2023,05,21,03,40,0.00
2023,05,21,03,41,0.00
2023,05,21,03,42,0.00
2023,05,21,03,43,0.00
2023,05,21,03,44,0.00
2023,05,21,03,45,0.00
2023,05,21,03,46,0.00
2023,05,21,03,47,0.00
2023,05,21,03,48,0.00
2023,05,21,03,49,0.00
2023,05,21,03,50,0.00
2023,05,21,03,51,0.00
2023,05,21,03,52,0.00
2023,05,21,03,53,0.00
2023,05,21,03,54,0.00
2023,05,21,03,55,0.00
2023,05,21,03,56,0.00
2023,05,21,03,57,0.00
2023,05,21,03,58,0.00
2023,05,21,03,59,0.00
2023,05,21,04,00,0.00
2023,05,21,04,01,0.00
2023,05,21,04,02,0.00
2023,05,21,04,03,0.00
2023,05,21,04,04,0.00
2023,05,21,04,05,0.00
2023,05,21,04,06,0.00
2023,05,21,04,07,0.00
2023,05,21,04,08,0.00
2023,05,21,04,09,0.00
2023,05,21,04,10,0.00
2023,05,21,04,11,0.00
2023,05,21,04,12,0.00
2023,05,21,04,13,0.00
2023,05,21,04,14,0.00
2023,05,21,04,15,0.00
2023,05,21,04,16,0.00
2023,05,21,04,17,0.00
2023,05,21,04,18,0.00
2023,05,21,04,19,0.00
2023,05,21,04,20,0.00
2023,05,21,04,21,0.00
2023,05,21,04,22,0.00
2023,05,21,04,23,0.00
2023,05,21,04,24,0.00
2023,05,21,04,25,0.00
2023,05,21,04,26,0.00
2023,05,21,04,27,0.00
2023,05,21,04,28,0.00
2023,05,21,04,29,0.00
2023,05,21,04,30,0.00
2023,05,21,04,31,0.00
2023,05,21,04,32,0.00
2023,05,21,04,33,0.00
2023,05,21,04,34,0.00
2023,05,21,04,35,0.00
2023,05,21,04,36,0.00
2023,05,21,04,37,0.00
2023,05,21,04,38,0.00
2023,05,21,04,39,0.00
2023,05,21,04,40,0.00
2023,05,21,04,41,0.00
2023,05,21,04,42,0.00
2023,05,21,04,43,0.00
2023,05,21,04,44,0.00
2023,05,21,04,45,0.00
2023,05,21,04,46,0.00
2023,05,21,04,47,0.00
2023,05,21,04,48,0.00
2023,05,21,04,49,0.00
2023,05,21,04,50,0.00
2023,05,21,04,51,0.00
2023,05,21,04,52,0.00
2023,05,21,04,53,0.00
2023,05,21,04,54,0.00
2023,05,21,04,55,0.00
2023,05,21,04,56,0.00
2023,05,21,04,57,0.00
2023,05,21,04,58,0.00
2023,05,21,04,59,0.00
2023,05,21,05,00,0.00
2023,05,21,05,01,0.00
2023,05,21,05,02,0.00
2023,05,21,05,03,0.00
2023,05,21,05,04,0.00
2023,05,21,05,05,0.00
2023,05,21,05,06,0.00
2023,05,21,05,07,0.00
2023,05,21,05,08,0.00
2023,05,21,05,09,0.00
2023,05,21,05,10,0.00
2023,05,21,05,11,0.00
2023,05,21,05,12,0.00
2023,05,21,05,13,0.00
2023,05,21,05,14,0.00
2023,05,21,05,15,0.00
2023,05,21,05,16,0.00
2023,05,21,05,17,0.00
2023,05,21,05,18,0.00
2023,05,21,05,19,0.00
2023,05,21,05,20,0.00
2023,05,21,05,21,0.00
2023,05,21,05,22,0.00
2023,05,21,05,23,0.00
2023,05,21,05,24,0.00
2023,05,21,05,25,0.00
2023,05,21,05,26,0.00
2023,05,21,05,27,0.00
2023,05,21,05,28,0.00
2023,05,21,05,29,0.00
2023,05,21,05,30,0.00
2023,05,21,05,31,0.00
2023,05,21,05,32,0.00
2023,05,21,05,33,0.00
2023,05,21,05,34,0.00
2023,05,21,05,35,0.70
2023,05,21,05,36,5.00
2023,05,21,05,37,5.00
2023,05,21,05,38,5.00
2023,05,21,05,39,6.30
2023,05,21,05,40,7.00
2023,05,21,05,41,7.00
2023,05,21,05,42,9.00
2023,05,21,05,43,9.00
2023,05,21,05,44,9.00
2023,05,21,05,45,9.00
2023,05,21,05,46,9.00
2023,05,21,05,47,10.50
2023,05,21,05,48,11.00
2023,05,21,05,49,11.00
2023,05,21,05,50,11.00
2023,05,21,05,51,11.40
2023,05,21,05,52,12.00
2023,05,21,05,53,12.00
2023,05,21,05,54,12.00
2023,05,21,05,55,12.00
2023,05,21,05,56,12.00
2023,05,21,05,57,12.00
2023,05,21,05,58,12.00
2023,05,21,05,59,13.00
2023,05,21,06,00,14.00
2023,05,21,06,01,14.00
2023,05,21,06,02,14.00
2023,05,21,06,03,14.30
2023,05,21,06,04,16.00
2023,05,21,06,05,16.80
2023,05,21,06,06,18.00
2023,05,21,06,07,18.60
2023,05,21,06,08,19.00
2023,05,21,06,09,20.80
2023,05,21,06,10,23.00
2023,05,21,06,11,23.50
2023,05,21,06,12,25.40
2023,05,21,06,13,27.00
2023,05,21,06,14,28.00
2023,05,21,06,15,29.60
2023,05,21,06,16,30.10
2023,05,21,06,17,33.30
2023,05,21,06,18,35.00
2023,05,21,06,19,35.00
2023,05,21,06,20,35.00
2023,05,21,06,21,36.30
2023,05,21,06,22,38.60
2023,05,21,06,23,39.00
2023,05,21,06,24,42.00
2023,05,21,06,25,43.30
2023,05,21,06,26,48.60
2023,05,21,06,27,52.60
2023,05,21,06,28,55.20
2023,05,21,06,29,57.50
2023,05,21,06,30,58.00
2023,05,21,06,31,62.00
2023,05,21,06,32,62.00
2023,05,21,06,33,62.00
2023,05,21,06,34,62.00
2023,05,21,06,35,62.00
2023,05,21,06,36,60.50
2023,05,21,06,37,60.00
2023,05,21,06,38,60.00
2023,05,21,06,39,60.50
2023,05,21,06,40,62.00
2023,05,21,06,41,69.30
2023,05,21,06,42,69.10
2023,05,21,06,43,70.40
2023,05,21,06,44,70.20
2023,05,21,06,45,70.30
2023,05,21,06,46,72.90
2023,05,21,06,47,76.40
2023,05,21,06,48,79.10
2023,05,21,06,49,81.00
2023,05,21,06,50,83.30
2023,05,21,06,51,84.00
2023,05,21,06,52,86.30
2023,05,21,06,53,92.90
2023,05,21,06,54,119.20
2023,05,21,06,55,137.00
2023,05,21,06,56,144.60
2023,05,21,06,57,152.00
2023,05,21,06,58,151.20
2023,05,21,06,59,150.00
2023,05,21,07,00,144.00
2023,05,21,07,01,145.60
2023,05,21,07,02,148.00
2023,05,21,07,03,148.60
2023,05,21,07,04,149.00
2023,05,21,07,05,135.70
2023,05,21,07,06,123.70
2023,05,21,07,07,116.00
2023,05,21,07,08,123.30
2023,05,21,07,09,141.30
2023,05,21,07,10,141.10
2023,05,21,07,11,137.00
2023,05,21,07,12,141.40
2023,05,21,07,13,140.50
2023,05,21,07,14,132.00
2023,05,21,07,15,134.00
2023,05,21,07,16,142.70
2023,05,21,07,17,148.00
2023,05,21,07,18,148.00
2023,05,21,07,19,150.70
2023,05,21,07,20,147.10
2023,05,21,07,21,123.20
2023,05,21,07,22,118.00
2023,05,21,07,23,111.00
2023,05,21,07,24,100.20
2023,05,21,07,25,95.80
2023,05,21,07,26,93.30
2023,05,21,07,27,91.40
2023,05,21,07,28,95.00
2023,05,21,07,29,93.50
2023,05,21,07,30,91.00
2023,05,21,07,31,91.00
2023,05,21,07,32,90.30
2023,05,21,07,33,90.00
2023,05,21,07,34,90.10
2023,05,21,07,35,91.50
2023,05,21,07,36,93.00
2023,05,21,07,37,92.00
2023,05,21,07,38,91.00
2023,05,21,07,39,92.60
2023,05,21,07,40,91.40
2023,05,21,07,41,95.70
2023,05,21,07,42,99.50
2023,05,21,07,43,98.00
2023,05,21,07,44,101.40
2023,05,21,07,45,105.00
2023,05,21,07,46,110.90
2023,05,21,07,47,113.00
2023,05,21,07,48,113.00
2023,05,21,07,49,115.10
2023,05,21,07,50,122.50
2023,05,21,07,51,127.40
2023,05,21,07,52,130.00
2023,05,21,07,53,121.10
2023,05,21,07,54,113.60
2023,05,21,07,55,114.40
2023,05,21,07,56,118.50
2023,05,21,07,57,123.00
2023,05,21,07,58,127.50
2023,05,21,07,59,127.00
2023,05,21,08,00,127.00
2023,05,21,08,01,140.30
2023,05,21,08,02,153.70
2023,05,21,08,03,201.50
2023,05,21,08,04,260.00
2023,05,21,08,05,260.00
2023,05,21,08,06,224.70
2023,05,21,08,07,206.00
2023,05,21,08,08,176.20
2023,05,21,08,09,193.00
2023,05,21,08,10,235.50
2023,05,21,08,11,350.00
2023,05,21,08,12,345.20
2023,05,21,08,13,377.60
2023,05,21,08,14,375.00
2023,05,21,08,15,390.90
2023,05,21,08,16,405.90
2023,05,21,08,17,384.00
2023,05,21,08,18,364.00
2023,05,21,08,19,362.40
2023,05,21,08,20,353.40
2023,05,21,08,21,330.40
2023,05,21,08,22,306.90
2023,05,21,08,23,298.90
2023,05,21,08,24,287.00
2023,05,21,08,25,296.00
2023,05,21,08,26,323.00
2023,05,21,08,27,359.90
2023,05,21,08,28,374.00
2023,05,21,08,29,348.20
2023,05,21,08,30,345.00
2023,05,21,08,31,333.60
2023,05,21,08,32,293.70
2023,05,21,08,33,274.00
2023,05,21,08,34,261.90
2023,05,21,08,35,257.80
2023,05,21,08,36,257.90
2023,05,21,08,37,258.60
2023,05,21,08,38,263.30
2023,05,21,08,39,267.00
2023,05,21,08,40,266.00
2023,05,21,08,41,265.00
2023,05,21,08,42,269.40
2023,05,21,08,43,279.90
2023,05,21,08,44,291.50
2023,05,21,08,45,357.40
2023,05,21,08,46,378.60
2023,05,21,08,47,388.00
2023,05,21,08,48,412.60
2023,05,21,08,49,427.00
2023,05,21,08,50,483.00
2023,05,21,08,51,490.00
2023,05,21,08,52,499.30
2023,05,21,08,53,517.00
2023,05,21,08,54,504.00
2023,05,21,08,55,421.50
2023,05,21,08,56,352.30
2023,05,21,08,57,313.90
2023,05,21,08,58,287.30
2023,05,21,08,59,286.10
2023,05,21,09,00,303.60
2023,05,21,09,01,320.50
2023,05,21,09,02,308.60
2023,05,21,09,03,281.80
2023,05,21,09,04,284.00
2023,05,21,09,05,288.70
2023,05,21,09,06,313.90
2023,05,21,09,07,302.00
2023,05,21,09,08,298.40
2023,05,21,09,09,293.10
2023,05,21,09,10,292.00
2023,05,21,09,11,293.80
2023,05,21,09,12,302.00
2023,05,21,09,13,307.20
2023,05,21,09,14,322.00
2023,05,21,09,15,348.40
2023,05,21,09,16,383.50
2023,05,21,09,17,374.40
2023,05,21,09,18,348.60
2023,05,21,09,19,321.40
2023,05,21,09,20,297.40
2023,05,21,09,21,285.50
2023,05,21,09,22,285.10
2023,05,21,09,23,295.80
2023,05,21,09,24,304.70
2023,05,21,09,25,314.00
2023,05,21,09,26,324.40
2023,05,21,09,27,337.50
2023,05,21,09,28,336.00
2023,05,21,09,29,336.00
2023,05,21,09,30,383.20
2023,05,21,09,31,419.50
2023,05,21,09,32,422.00
2023,05,21,09,33,402.40
2023,05,21,09,34,351.20
2023,05,21,09,35,319.60
2023,05,21,09,36,306.00
2023,05,21,09,37,294.00
2023,05,21,09,38,271.40
2023,05,21,09,39,266.10
2023,05,21,09,40,243.70
2023,05,21,09,41,241.70
2023,05,21,09,42,243.60
2023,05,21,09,43,243.00
2023,05,21,09,44,250.60
2023,05,21,09,45,255.00
2023,05,21,09,46,261.00
2023,05,21,09,47,279.00
2023,05,21,09,48,287.00
2023,05,21,09,49,275.20
2023,05,21,09,50,258.50
2023,05,21,09,51,263.20
2023,05,21,09,52,239.30
2023,05,21,09,53,227.00
2023,05,21,09,54,214.80
2023,05,21,09,55,230.40
2023,05,21,09,56,256.20
2023,05,21,09,57,271.00
2023,05,21,09,58,294.30
2023,05,21,09,59,308.00
2023,05,21,10,00,305.80
2023,05,21,10,01,296.00
2023,05,21,10,02,300.20
2023,05,21,10,03,302.60
2023,05,21,10,04,361.70
2023,05,21,10,05,409.60
2023,05,21,10,06,417.00
2023,05,21,10,07,409.30
2023,05,21,10,08,367.40
2023,05,21,10,09,323.00
2023,05,21,10,10,320.00
2023,05,21,10,11,322.20
2023,05,21,10,12,352.70
2023,05,21,10,13,366.00
2023,05,21,10,14,366.00
2023,05,21,10,15,457.00
2023,05,21,10,16,457.00
2023,05,21,10,17,586.60
2023,05,21,10,18,807.00
2023,05,21,10,19,833.40
2023,05,21,10,20,849.00
2023,05,21,10,21,849.00
2023,05,21,10,22,860.70
2023,05,21,10,23,789.50
2023,05,21,10,24,731.00
2023,05,21,10,25,575.40
2023,05,21,10,26,475.10
2023,05,21,10,27,525.40
2023,05,21,10,28,534.00
2023,05,21,10,29,558.00
2023,05,21,10,30,488.40
2023,05,21,10,31,504.00
2023,05,21,10,32,593.70
2023,05,21,10,33,715.40
2023,05,21,10,34,738.00
2023,05,21,10,35,801.70
2023,05,21,10,36,810.00
2023,05,21,10,37,810.00
2023,05,21,10,38,826.70
2023,05,21,10,39,873.80
2023,05,21,10,40,918.90
2023,05,21,10,41,909.20
2023,05,21,10,42,902.00
2023,05,21,10,43,902.00
2023,05,21,10,44,902.00
2023,05,21,10,45,881.60
2023,05,21,10,46,847.00
2023,05,21,10,47,847.00
2023,05,21,10,48,611.40
2023,05,21,10,49,529.00
2023,05,21,10,50,541.00
2023,05,21,10,51,541.00
2023,05,21,10,52,541.00
2023,05,21,10,53,541.00
2023,05,21,10,54,800.40
2023,05,21,10,55,953.00
2023,05,21,10,56,947.00
2023,05,21,10,57,946.00
2023,05,21,10,58,923.00
2023,05,21,10,59,854.00
2023,05,21,11,00,680.30
2023,05,21,11,01,519.00
2023,05,21,11,02,519.00
2023,05,21,11,03,500.30
2023,05,21,11,04,580.00
2023,05,21,11,05,580.00
2023,05,21,11,06,580.00
2023,05,21,11,07,800.40
2023,05,21,11,08,960.90
2023,05,21,11,09,935.00
2023,05,21,11,10,644.30
2023,05,21,11,11,608.00
2023,05,21,11,12,608.00
2023,05,21,11,13,608.00
2023,05,21,11,14,608.00
2023,05,21,11,15,460.00
2023,05,21,11,16,370.00
2023,05,21,11,17,380.90
2023,05,21,11,18,385.00
2023,05,21,11,19,392.30
2023,05,21,11,20,423.40
2023,05,21,11,21,403.70
2023,05,21,11,22,348.20
2023,05,21,11,23,329.00
2023,05,21,11,24,323.40
2023,05,21,11,25,319.40
2023,05,21,11,26,316.00
2023,05,21,11,27,311.60
2023,05,21,11,28,304.00
2023,05,21,11,29,304.00
2023,05,21,11,30,304.00
2023,05,21,11,31,304.00
2023,05,21,11,32,304.00
2023,05,21,11,33,459.60
2023,05,21,11,34,897.30
2023,05,21,11,35,886.00
2023,05,21,11,36,874.00
2023,05,21,11,37,870.70
2023,05,21,11,38,859.60
2023,05,21,11,39,843.80
2023,05,21,11,40,842.00
2023,05,21,11,41,844.60
2023,05,21,11,42,849.00
2023,05,21,11,43,852.10
2023,05,21,11,44,853.30
2023,05,21,11,45,847.70
2023,05,21,11,46,852.00
2023,05,21,11,47,881.00
2023,05,21,11,48,879.40
2023,05,21,11,49,877.00
2023,05,21,11,50,877.00
2023,05,21,11,51,883.70
2023,05,21,11,52,890.30
2023,05,21,11,53,892.80
2023,05,21,11,54,888.70
2023,05,21,11,55,885.30
2023,05,21,11,56,897.30
2023,05,21,11,57,904.00
2023,05,21,11,58,904.00
2023,05,21,11,59,904.00
2023,05,21,12,00,829.50
2023,05,21,12,01,405.40
2023,05,21,12,02,435.90
2023,05,21,12,03,462.00
2023,05,21,12,04,462.00
2023,05,21,12,05,847.90
2023,05,21,12,06,979.40
2023,05,21,12,07,972.40
2023,05,21,12,08,960.40
2023,05,21,12,09,950.80
2023,05,21,12,10,951.70
2023,05,21,12,11,956.00
2023,05,21,12,12,965.60
2023,05,21,12,13,969.00
2023,05,21,12,14,1035.00
2023,05,21,12,15,1035.00
2023,05,21,12,16,1035.00
2023,05,21,12,17,1029.20
2023,05,21,12,18,1023.00
2023,05,21,12,19,1031.90
2023,05,21,12,20,1035.00
2023,05,21,12,21,1067.00
2023,05,21,12,22,1074.80
2023,05,21,12,23,1097.00
2023,05,21,12,24,1097.00
2023,05,21,12,25,728.70
2023,05,21,12,26,503.40
2023,05,21,12,27,501.00
2023,05,21,12,28,506.80
2023,05,21,12,29,540.00
2023,05,21,12,30,540.00
2023,05,21,12,31,540.00
2023,05,21,12,32,540.00
2023,05,21,12,33,540.00
2023,05,21,12,34,540.00
2023,05,21,12,35,540.00
2023,05,21,12,36,702.60
2023,05,21,12,37,1167.00
2023,05,21,12,38,1167.00
2023,05,21,12,39,779.80
2023,05,21,12,40,532.70
2023,05,21,12,41,526.00
2023,05,21,12,42,526.00
2023,05,21,12,43,568.30
2023,05,21,12,44,689.00
2023,05,21,12,45,819.10
2023,05,21,12,46,940.00
2023,05,21,12,47,940.00
2023,05,21,12,48,642.70
2023,05,21,12,49,591.00
2023,05,21,12,50,591.00
2023,05,21,12,51,622.90
2023,05,21,12,52,677.00
2023,05,21,12,53,874.70
2023,05,21,12,54,991.00
2023,05,21,12,55,991.00
2023,05,21,12,56,991.00
2023,05,21,12,57,991.00
2023,05,21,12,58,991.00
2023,05,21,12,59,991.00
2023,05,21,13,00,723.40
2023,05,21,13,01,615.60
2023,05,21,13,02,633.00
2023,05,21,13,03,633.00
2023,05,21,13,04,633.00
2023,05,21,13,05,633.00
2023,05,21,13,06,633.00
2023,05,21,13,07,678.30
2023,05,21,13,08,701.30
2023,05,21,13,09,700.00
2023,05,21,13,10,449.90
2023,05,21,13,11,438.00
2023,05,21,13,12,438.00
2023,05,21,13,13,464.00
2023,05,21,13,14,543.00
2023,05,21,13,15,573.00
2023,05,21,13,16,489.50
2023,05,21,13,17,475.90
2023,05,21,13,18,479.90
2023,05,21,13,19,471.00
2023,05,21,13,20,475.30
2023,05,21,13,21,474.30
2023,05,21,13,22,474.00
2023,05,21,13,23,483.90
2023,05,21,13,24,513.00
2023,05,21,13,25,513.00
2023,05,21,13,26,513.00
2023,05,21,13,27,513.00
2023,05,21,13,28,497.90
2023,05,21,13,29,528.70
2023,05,21,13,30,540.00
2023,05,21,13,31,540.00
2023,05,21,13,32,540.00
2023,05,21,13,33,645.10
2023,05,21,13,34,798.00
2023,05,21,13,35,1135.50
2023,05,21,13,36,1334.00
2023,05,21,13,37,1334.00
2023,05,21,13,38,1210.30
2023,05,21,13,39,493.60
2023,05,21,13,40,483.20
2023,05,21,13,41,510.10
2023,05,21,13,42,527.00
2023,05,21,13,43,527.00
2023,05,21,13,44,527.00
2023,05,21,13,45,664.10
2023,05,21,13,46,705.00
2023,05,21,13,47,705.00
2023,05,21,13,48,705.00
2023,05,21,13,49,705.00
2023,05,21,13,50,705.00
2023,05,21,13,51,649.90
2023,05,21,13,52,643.00
2023,05,21,13,53,643.00
2023,05,21,13,54,643.00
2023,05,21,13,55,643.00
2023,05,21,13,56,643.00
2023,05,21,13,57,643.00
2023,05,21,13,58,643.00
2023,05,21,13,59,849.60
2023,05,21,14,00,903.70
2023,05,21,14,01,900.00
2023,05,21,14,02,900.00
2023,05,21,14,03,900.00
2023,05,21,14,04,900.00
2023,05,21,14,05,900.00
2023,05,21,14,06,564.00
2023,05,21,14,07,589.70
2023,05,21,14,08,663.00
2023,05,21,14,09,538.00
2023,05,21,14,10,422.00
2023,05,21,14,11,422.00
2023,05,21,14,12,422.00
2023,05,21,14,13,422.00
2023,05,21,14,14,648.10
2023,05,21,14,15,1296.00
2023,05,21,14,16,1299.00
2023,05,21,14,17,1299.00
2023,05,21,14,18,1299.00
2023,05,21,14,19,528.30
2023,05,21,14,20,424.60
2023,05,21,14,21,422.50
2023,05,21,14,22,422.40
2023,05,21,14,23,417.40
2023,05,21,14,24,418.10
2023,05,21,14,25,420.00
2023,05,21,14,26,442.10
2023,05,21,14,27,452.40
2023,05,21,14,28,505.00
2023,05,21,14,29,503.90
2023,05,21,14,30,494.40
2023,05,21,14,31,484.40
2023,05,21,14,32,465.20
2023,05,21,14,33,441.50
2023,05,21,14,34,434.20
2023,05,21,14,35,396.00
2023,05,21,14,36,380.90
2023,05,21,14,37,352.50
2023,05,21,14,38,341.00
2023,05,21,14,39,336.50
2023,05,21,14,40,342.00
2023,05,21,14,41,343.00
2023,05,21,14,42,364.30
2023,05,21,14,43,437.60
2023,05,21,14,44,472.50
2023,05,21,14,45,485.00
2023,05,21,14,46,485.00
2023,05,21,14,47,485.00
2023,05,21,14,48,485.00
2023,05,21,14,49,485.00
2023,05,21,14,50,495.00
2023,05,21,14,51,511.00
2023,05,21,14,52,497.40
2023,05,21,14,53,452.30
2023,05,21,14,54,418.90
2023,05,21,14,55,415.00
2023,05,21,14,56,407.50
2023,05,21,14,57,387.00
2023,05,21,14,58,390.60
2023,05,21,14,59,395.90
2023,05,21,15,00,400.10
2023,05,21,15,01,396.60
2023,05,21,15,02,396.00
2023,05,21,15,03,398.60
2023,05,21,15,04,409.30
2023,05,21,15,05,422.30
2023,05,21,15,06,443.50
2023,05,21,15,07,484.70
2023,05,21,15,08,581.10
2023,05,21,15,09,633.90
2023,05,21,15,10,656.00
2023,05,21,15,11,656.00
2023,05,21,15,12,656.00
2023,05,21,15,13,445.70
2023,05,21,15,14,327.90
2023,05,21,15,15,325.60
2023,05,21,15,16,312.60
2023,05,21,15,17,308.70
2023,05,21,15,18,308.00
2023,05,21,15,19,317.90
2023,05,21,15,20,327.00
2023,05,21,15,21,312.90
2023,05,21,15,22,310.70
2023,05,21,15,23,335.70
2023,05,21,15,24,398.40
2023,05,21,15,25,431.00
2023,05,21,15,26,431.00
2023,05,21,15,27,431.00
2023,05,21,15,28,874.70
2023,05,21,15,29,1030.00
2023,05,21,15,30,1030.00
2023,05,21,15,31,1022.20
2023,05,21,15,32,992.20
2023,05,21,15,33,979.00
2023,05,21,15,34,979.00
2023,05,21,15,35,984.40
2023,05,21,15,36,985.70
2023,05,21,15,37,979.00
2023,05,21,15,38,977.80
2023,05,21,15,39,974.00
2023,05,21,15,40,974.00
2023,05,21,15,41,974.00
2023,05,21,15,42,420.20
2023,05,21,15,43,257.60
2023,05,21,15,44,250.90
2023,05,21,15,45,247.70
2023,05,21,15,46,245.10
2023,05,21,15,47,263.50
2023,05,21,15,48,298.00
2023,05,21,15,49,364.30
2023,05,21,15,50,383.00
2023,05,21,15,51,738.00
2023,05,21,15,52,738.00
2023,05,21,15,53,821.00
2023,05,21,15,54,920.50
2023,05,21,15,55,882.00
2023,05,21,15,56,882.00
2023,05,21,15,57,882.00
2023,05,21,15,58,988.00
2023,05,21,15,59,815.30
2023,05,21,16,00,313.40
2023,05,21,16,01,292.00
2023,05,21,16,02,281.70
2023,05,21,16,03,281.00
2023,05,21,16,04,289.00
2023,05,21,16,05,297.30
2023,05,21,16,06,299.80
2023,05,21,16,07,302.00
2023,05,21,16,08,306.50
2023,05,21,16,09,318.60
2023,05,21,16,10,323.00
2023,05,21,16,11,323.30
2023,05,21,16,12,333.50
2023,05,21,16,13,345.00
2023,05,21,16,14,350.20
2023,05,21,16,15,359.00
2023,05,21,16,16,350.20
2023,05,21,16,17,339.60
2023,05,21,16,18,338.00
2023,05,21,16,19,313.00
2023,05,21,16,20,292.90
2023,05,21,16,21,277.70
2023,05,21,16,22,268.40
2023,05,21,16,23,258.70
2023,05,21,16,24,255.00
2023,05,21,16,25,239.00
2023,05,21,16,26,221.50
2023,05,21,16,27,208.90
2023,05,21,16,28,187.00
2023,05,21,16,29,162.30
2023,05,21,16,30,146.10
2023,05,21,16,31,142.00
2023,05,21,16,32,123.30
2023,05,21,16,33,106.30
2023,05,21,16,34,101.50
2023,05,21,16,35,100.80
2023,05,21,16,36,102.00
2023,05,21,16,37,103.30
2023,05,21,16,38,104.00
2023,05,21,16,39,102.30
2023,05,21,16,40,100.00
2023,05,21,16,41,99.50
2023,05,21,16,42,98.00
2023,05,21,16,43,99.00
2023,05,21,16,44,101.30
2023,05,21,16,45,104.30
2023,05,21,16,46,106.80
2023,05,21,16,47,107.00
2023,05,21,16,48,106.50
2023,05,21,16,49,105.00
2023,05,21,16,50,103.40
2023,05,21,16,51,102.00
2023,05,21,16,52,103.50
2023,05,21,16,53,104.90
2023,05,21,16,54,109.00
2023,05,21,16,55,110.30
2023,05,21,16,56,114.00
2023,05,21,16,57,113.50
2023,05,21,16,58,113.00
2023,05,21,16,59,111.50
2023,05,21,17,00,111.00
2023,05,21,17,01,106.70
2023,05,21,17,02,104.00
2023,05,21,17,03,101.20
2023,05,21,17,04,94.00
2023,05,21,17,05,89.10
2023,05,21,17,06,85.00
2023,05,21,17,07,81.30